Flag for Canada Weather past 2 weeks in Summerside, Pr.Edward I, Canada

Now
24 °F

Cold.


Feels Like: 11 °F
Forecast: 20 / 31 °F
Wind: 17 mph from Northeast

Location: Summerside Airport

Current Time: Mar 28, 2015 at 11:01:32 PM

Latest Report: Mar 28, 2015 at 10:00 PM


Visibility: N/A

Pressure: 29.75 "Hg

Humidity: 79%

Dew point: 18 °F

Location of SummersideLocation

Historic Weather in Summerside — Graph

°F

Summerside temperature yesterday

Maximum temperature yesterday: 40 °F (at 1:00 PM)
Minimum temperature yesterday: 31 °F (at 10:00 PM)
Average temperature yesterday: 35 °F

Past Weeks' High & Low Weather Summary

 TemperatureHumidityPressure
High40 °F (Mar 27, 1:00 PM)100% (Mar 27, 12:00 AM)30.30 "Hg (Mar 27, 12:00 AM)
Low4 °F (Mar 14, 8:00 AM)33% (Mar 14, 4:00 PM)29.13 "Hg (Mar 22, 12:00 PM)
Average23 °F76%29.80 "Hg
* Reported Mar 13 9:00 PM — Mar 28 9:00 PM, Summerside, Weather by CustomWeather, © 2015

Note: Actual official high and low records may vary slightly from our data, if they occured in-between our weather recording intervals... More about our weather records

Advertising

Summerside weather history for previous 24 hours

 ConditionsComfort  
Time TempWeatherWind HumidityBarometerVisibility
9:00 PM
Sat, Mar 28
24 °FCold.17 mph76%29.76 "HgN/A
8:00 PM24 °FCold.17 mph73%29.76 "HgN/A
7:00 PM25 °FCold.15 mph78%29.77 "HgN/A
6:00 PM25 °FChilly.21 mph71%29.77 "HgN/A
5:00 PM26 °FChilly.21 mph75%29.78 "HgN/A
4:00 PM27 °FChilly.20 mph77%29.79 "HgN/A
3:00 PM29 °FChilly.20 mph72%29.79 "HgN/A
2:00 PM28 °FChilly.18 mph81%29.82 "HgN/A
1:00 PM28 °FChilly.15 mph82%29.85 "HgN/A
12:00 PM28 °FChilly.14 mph84%29.85 "HgN/A
11:00 AM29 °FChilly.13 mph81%29.87 "HgN/A
10:00 AM29 °FChilly.14 mph77%29.87 "HgN/A
9:00 AM31 °FChilly.15 mph75%29.85 "HgN/A
8:00 AM29 °FChilly.8 mph85%29.83 "HgN/A
7:00 AM28 °FChilly.2 mph90%29.83 "HgN/A
6:00 AM30 °FChilly.2 mph87%29.81 "HgN/A
5:00 AM31 °FChilly.10 mph79%29.78 "HgN/A
4:00 AM32 °FChilly.9 mph71%29.75 "HgN/A
3:00 AM33 °FChilly.9 mph68%29.75 "HgN/A
2:00 AM34 °FChilly.8 mph76%29.75 "HgN/A
1:00 AM33 °FChilly.5 mph84%29.73 "HgN/A
12:00 AM31 °FChilly.2 mph92%29.70 "HgN/A
11:00 PM
Fri, Mar 27
32 °FChilly.2 mph90%29.70 "HgN/A
Weather by CustomWeather, © 2015

See weather overviewHow to use our weather pages